TimeEST,TemperatureF,Dew PointF,Humidity,Sea Level PressureIn,VisibilityMPH,Wind Direction,Wind SpeedMPH,Gust SpeedMPH,PrecipitationIn,Events,Conditions,WindDirDegrees,DateUTC
12:56 AM,-13.0,-18.0,78,30.30,10.0,East,3.5,-,N/A,,Clear,80,2013-01-03 05:56:00
1:56 AM,-11.0,-15.0,83,30.30,10.0,ENE,4.6,-,N/A,,Mostly Cloudy,70,2013-01-03 06:56:00
2:56 AM,-6.0,-11.0,79,30.29,10.0,Calm,Calm,-,N/A,,Overcast,0,2013-01-03 07:56:00
3:56 AM,-2.0,-9.9,69,30.27,10.0,NE,4.6,-,N/A,,Overcast,50,2013-01-03 08:56:00
4:56 AM,-2.0,-9.0,72,30.25,10.0,ENE,3.5,-,N/A,,Overcast,70,2013-01-03 09:56:00
5:56 AM,-0.9,-8.0,72,30.25,10.0,ENE,5.8,-,N/A,,Overcast,60,2013-01-03 10:56:00
6:56 AM,-4.0,-9.9,76,30.23,10.0,Calm,Calm,-,N/A,,Clear,0,2013-01-03 11:56:00
7:56 AM,-2.2,-7.6,78,30.17,10.0,ENE,3.5,-,N/A,,Overcast,60,2013-01-03 12:56:00
8:56 AM,-0.0,-7.1,72,30.20,10.0,East,3.5,-,N/A,,Overcast,90,2013-01-03 13:56:00
9:56 AM,5.0,-2.9,70,30.18,10.0,ENE,4.6,-,N/A,,Overcast,60,2013-01-03 14:56:00
10:56 AM,10.0,-0.9,61,30.15,10.0,ENE,4.6,-,N/A,,Overcast,60,2013-01-03 15:56:00
11:56 AM,12.9,1.0,59,30.12,10.0,Calm,Calm,-,N/A,,Overcast,0,2013-01-03 16:56:00
12:56 PM,16.0,6.1,65,30.07,5.0,Calm,Calm,-,0.00,,Haze,0,2013-01-03 17:56:00
1:54 PM,17.6,10.4,73,29.99,2.5,East,3.5,-,0.00,Snow,Light Snow,80,2013-01-03 18:54:00
1:56 PM,18.0,10.0,71,30.03,2.5,East,3.5,-,0.00,Snow,Light Snow,80,2013-01-03 18:56:00
2:05 PM,17.6,10.4,73,29.99,1.5,ENE,3.5,-,0.00,Snow,Light Snow,70,2013-01-03 19:05:00
2:27 PM,19.4,12.2,74,29.98,3.0,Calm,Calm,-,0.00,Snow,Light Snow,0,2013-01-03 19:27:00
2:56 PM,24.1,17.1,75,30.00,7.0,South,6.9,-,0.00,,Overcast,190,2013-01-03 19:56:00
3:22 PM,24.8,17.6,74,29.96,1.8,SSW,6.9,-,N/A,Snow,Light Snow,210,2013-01-03 20:22:00
3:33 PM,24.8,19.4,80,29.96,0.8,SSW,8.1,17.3,0.00,Snow,Light Snow,210,2013-01-03 20:33:00
3:56 PM,24.1,21.0,88,29.99,0.5,SSW,11.5,-,0.00,Fog-Snow,Snow,200,2013-01-03 20:56:00
4:38 PM,24.8,21.2,86,29.95,0.2,SSW,10.4,18.4,0.00,Fog-Snow,Snow,200,2013-01-03 21:38:00
4:56 PM,24.1,21.0,88,29.98,0.8,SSW,10.4,-,0.00,Snow,Light Snow,200,2013-01-03 21:56:00
5:11 PM,24.8,21.2,86,29.94,1.0,SSW,11.5,-,0.00,Snow,Light Snow,200,2013-01-03 22:11:00
5:20 PM,24.8,21.2,86,29.94,0.8,South,10.4,-,0.00,Snow,Light Snow,190,2013-01-03 22:20:00
5:56 PM,25.0,21.9,88,29.97,0.8,South,9.2,19.6,0.01,Snow,Light Snow,190,2013-01-03 22:56:00
6:12 PM,24.8,21.2,86,29.93,0.5,South,10.4,19.6,0.00,Fog-Snow,Snow,190,2013-01-03 23:12:00
6:56 PM,25.0,23.0,92,29.97,0.5,WSW,4.6,-,0.05,Fog-Snow,Snow,250,2013-01-03 23:56:00
7:29 PM,26.6,24.8,93,29.93,0.2,WSW,6.9,-,0.07,Fog-Snow,Heavy Snow,240,2013-01-04 00:29:00
7:40 PM,26.6,23.0,86,29.93,0.2,SSW,9.2,-,0.10,Fog-Snow,Snow,210,2013-01-04 00:40:00
7:51 PM,26.6,23.0,86,29.93,0.8,SSW,9.2,-,0.11,Snow,Light Snow,200,2013-01-04 00:51:00
7:56 PM,26.1,23.0,88,29.96,1.2,SSW,5.8,-,0.11,Snow,Light Snow,200,2013-01-04 00:56:00
8:04 PM,26.6,24.8,93,29.93,1.8,SSW,4.6,-,0.00,Snow,Light Snow,210,2013-01-04 01:04:00
8:23 PM,28.4,24.8,86,29.92,2.5,SW,4.6,-,0.00,Snow,Light Snow,230,2013-01-04 01:23:00
8:32 PM,28.4,24.8,86,29.92,4.0,SW,3.5,-,0.00,Snow,Light Snow,220,2013-01-04 01:32:00
8:39 PM,28.4,24.8,86,29.92,3.0,West,3.5,-,0.00,Snow,Light Snow,260,2013-01-04 01:39:00
8:56 PM,28.9,24.1,82,29.96,8.0,WSW,4.6,-,0.00,,Overcast,250,2013-01-04 01:56:00
9:56 PM,30.9,26.1,82,29.95,10.0,West,11.5,-,0.00,,Overcast,270,2013-01-04 02:56:00
10:56 PM,32.0,27.0,82,29.94,4.0,West,17.3,27.6,0.00,Snow,Light Snow,260,2013-01-04 03:56:00
11:56 PM,33.1,26.1,75,29.93,10.0,West,16.1,-,0.00,,Overcast,270,2013-01-04 04:56:00